Wind_Speed
62 62 61 61 61 61 61 61 62 64 65 66 67 67 68 69 71 73 75 78 79 80 81 80 79 77 74 73 71 71 71 71 72 73 73 74 74 74 74 73 73 72 72 72 72 72 72 72 73 73 74 74 75 75 76 77 77 78 79 80 81 81 82 83 84 85 86 87 88 89 90 91 92 92 93 94 94 95 95 96 96 96 97 97 97 97
64 63 62 61 60 61 61 63 64 66 68 69 70 70 71 73 74 77 79 82 83 83 82 80 77 74 73 72 72 72 72 72 73 73 73 73 73 73 73 73 73 72 72 72 73 73 73 74 74 75 76 76 77 77 78 79 79 80 81 82 83 84 85 86 87 88 89 90 91 92 93 94 94 95 95 96 96 96 96 96 96 96 96 96 96 96
65 63 62 61 61 61 64 66 68 69 70 71 71 72 73 74 77 79 82 83 83 82 79 76 74 73 72 72 73 73 73 73 73 73 73 73 73 73 73 73 73 73 73 73 74 74 75 76 76 77 77 78 79 79 80 81 81 82 83 84 85 86 88 89 90 91 92 93 93 94 94 95 95 95 95 95 94 94 94 94 93 93 93 93 92 92
64 63 62 61 62 64 67 69 71 72 72 72 72 73 74 76 78 80 82 82 81 78 76 74 73 73 73 73 73 73 73 73 72 72 72 72 72 72 73 73 73 74 74 75 76 76 77 77 78 79 79 80 80 81 82 83 84 85 86 87 88 89 90 91 92 93 93 93 93 93 93 93 92 92 91 91 90 89 89 88 88 88 87 87 87 86
62 61 62 63 64 67 69 71 72 72 72 72 72 73 75 77 79 80 81 79 77 75 73 73 73 74 74 73 73 73 72 72 72 72 72 72 72 73 73 74 74 75 76 76 77 78 78 79 80 80 81 82 82 83 84 85 86 87 88 90 90 91 92 92 92 92 91 91 90 90 89 88 87 86 85 84 84 83 82 82 81 81 80 80 80 79
61 61 62 63 65 67 69 70 71 72 72 73 74 75 76 78 79 79 78 76 75 74 74 74 74 74 73 73 72 72 72 72 72 72 72 72 73 73 74 75 76 76 77 78 79 79 80 81 81 82 83 83 84 85 86 88 88 89 90 90 91 91 90 90 89 88 87 86 85 84 82 81 80 79 78 78 77 76 76 75 75 74 74 73 73 73
61 62 63 64 66 67 68 70 71 71 73 74 75 76 78 78 78 77 76 75 75 75 75 75 74 73 72 72 72 72 72 72 72 72 73 73 74 74 75 76 77 78 79 79 80 81 81 82 83 84 85 86 86 87 88 89 89 89 89 89 88 87 86 85 84 82 81 80 78 77 76 75 74 73 72 72 71 71 70 69 69 69 68 68 68 67
62 63 65 66 67 69 70 71 72 73 74 76 76 77 77 77 77 76 76 76 76 75 75 74 73 72 72 72 72 72 72 72 72 73 74 74 75 76 77 77 78 79 80 81 82 82 83 84 85 85 86 87 88 88 88 88 88 87 86 85 84 82 81 79 78 76 75 74 73 72 71 70 70 69 68 68 67 67 66 66 65 65 65 64 64 64
64 66 67 68 70 71 72 73 74 75 76 77 77 76 76 76 76 76 76 76 76 75 73 72 71 71 72 72 72 72 73 73 73 74 74 75 76 77 78 79 79 80 81 82 83 84 84 85 86 86 87 87 87 87 86 85 84 83 81 80 78 77 75 74 73 72 71 70 70 69 69 68 68 67 67 67 66 66 65 64 64 64 63 63 62 62
67 68 70 71 72 73 74 75 75 76 76 76 76 77 76 77 77 77 76 76 75 74 72 71 71 71 72 73 73 73 74 74 74 75 75 76 77 78 79 79 80 81 82 83 84 85 85 86 86 86 85 85 84 83 82 80 79 77 76 74 73 72 71 70 70 70 70 70 70 70 70 69 69 69 69 68 67 67 66 66 65 64 64 63 63 62
69 70 71 72 73 73 74 74 75 75 76 76 77 78 78 78 77 76 75 74 73 72 71 71 71 71 72 73 74 75 75 75 75 76 77 77 78 79 80 80 81 82 83 84 84 85 85 84 84 83 82 81 79 78 76 75 73 72 71 71 70 70 70 70 70 71 71 72 72 73 73 73 73 73 72 72 71 70 69 68 67 67 66 65 64 64
70 71 71 72 72 73 74 75 75 76 77 77 78 78 78 78 77 75 74 73 72 72 71 72 72 72 73 74 75 76 76 76 76 77 77 78 79 80 80 81 82 83 83 83 84 83 82 81 80 79 77 76 74 73 71 70 70 69 69 69 69 70 70 71 72 72 73 74 74 75 75 76 76 76 75 75 74 73 72 71 70 69 68 67 67 66
70 71 71 72 73 74 75 76 77 78 78 78 78 77 77 77 76 75 73 73 72 72 72 72 73 74 75 75 76 76 76 77 77 77 78 79 80 81 81 81 82 82 82 81 81 80 79 77 75 74 72 70 69 68 68 68 68 68 69 69 70 70 71 72 72 73 73 74 74 75 75 75 76 76 76 75 75 74 74 73 72 71 70 69 68 67
71 72 73 74 75 76 77 77 78 78 78 78 77 77 76 76 75 74 73 73 73 73 73 73 74 75 76 77 77 77 77 77 77 78 78 79 80 81 81 81 81 80 79 78 77 76 74 71 69 68 67 66 66 66 67 67 68 69 69 69 70 70 70 70 70 71 71 71 72 72 72 73 73 73 73 73 73 73 72 72 71 71 70 69 68 67
73 74 75 76 77 77 78 78 78 78 78 77 77 76 76 75 75 74 74 74 74 75 75 75 75 76 77 78 78 78 78 78 78 78 78 79 80 80 79 78 78 77 75 72 71 70 68 65 63 63 64 64 65 66 67 67 68 68 68 68 68 67 67 67 67 68 68 68 68 69 69 69 69 69 70 70 70 69 69 69 68 68 67 67 66 65
75 76 76 77 77 77 78 77 77 77 77 77 76 76 75 75 75 75 75 75 75 76 76 76 76 76 77 78 79 79 78 78 78 78 77 78 79 79 77 75 74 72 70 67 64 63 62 61 61 62 63 64 65 66 66 66 66 66 65 65 65 64 64 64 65 65 65 65 65 65 65 66 66 66 66 66 66 66 66 65 65 64 64 63 63 62
76 76 76 77 77 77 77 77 77 77 77 76 76 76 76 76 76 76 76 76 77 77 77 77 76 76 77 79 80 80 78 77 77 77 76 76 76 76 74 70 68 67 65 62 59 58 59 59 60 62 63 63 64 64 64 64 63 63 62 62 62 62 62 62 61 62 62 62 62 62 62 62 62 62 62 62 63 62 62 62 61 60 60 59 59 59
76 76 76 77 77 77 77 77 77 77 77 77 77 77 77 77 77 77 78 78 78 78 78 78 77 76 76 77 79 80 79 77 76 76 75 73 73 72 69 65 63 61 59 57 56 56 58 59 60 61 61 62 62 61 61 61 61 60 60 60 60 59 59 59 58 58 58 58 58 58 57 58 58 58 58 59 59 59 59 59 58 57 57 56 56 55
76 76 76 77 77 77 77 77 77 77 78 78 78 78 78 78 79 79 79 79 79 78 78 78 77 77 77 77 79 80 79 76 74 73 72 69 68 67 64 60 57 55 54 54 55 56 57 58 59 59 59 59 59 59 59 59 59 59 59 58 58 57 56 56 55 55 55 54 54 54 54 54 54 54 55 55 56 56 56 56 55 54 54 53 53 52
76 76 77 77 77 77 78 78 78 79 79 79 79 79 79 80 80 80 80 80 79 79 78 78 78 78 78 77 78 78 77 74 72 70 67 64 62 60 58 54 52 51 52 53 55 56 56 56 56 56 56 56 56 57 57 58 58 58 57 56 56 55 54 53 52 52 52 51 51 50 50 50 49 50 50 51 52 52 53 53 53 52 51 50 50 50
76 77 77 78 78 78 79 80 80 81 81 81 81 81 81 81 81 80 80 80 80 79 79 78 78 77 77 76 76 75 74 70 67 65 62 59 56 54 52 49 49 50 51 53 54 54 54 53 53 53 53 54 55 55 56 56 57 56 56 55 53 52 51 51 50 50 50 49 48 47 47 46 45 45 45 46 47 48 49 50 50 50 49 48 48 48
77 78 79 79 80 80 81 81 82 82 83 82 82 82 82 81 81 81 81 80 80 79 78 77 77 76 75 73 72 71 69 65 61 58 56 52 50 49 49 48 48 49 51 51 52 51 51 51 51 51 52 52 53 54 55 55 55 55 54 53 52 51 50 49 49 49 48 47 46 45 43 42 42 41 41 41 42 43 44 46 46 47 47 46 46 46
78 79 80 81 81 82 82 83 83 84 84 84 83 83 83 82 82 81 81 80 79 78 77 76 75 73 71 69 67 65 63 59 56 52 49 46 45 46 47 47 48 49 49 49 49 48 48 49 49 50 50 51 52 53 53 54 54 53 53 52 50 49 49 48 48 47 46 45 44 42 41 40 38 37 37 37 37 38 39 41 42 43 44 44 44 44
80 81 82 82 83 83 84 84 85 85 85 85 84 84 84 83 82 82 81 80 78 77 75 73 70 68 65 62 60 58 56 53 50 47 45 43 43 45 46 47 47 47 47 46 46 46 47 47 48 49 49 50 51 51 52 52 52 52 52 51 49 48 48 47 47 46 45 44 42 40 39 37 36 35 34 33 33 34 35 36 38 39 40 41 41 41
82 83 83 84 85 85 85 85 86 86 86 85 85 85 84 83 82 81 79 77 75 72 69 66 63 60 57 55 53 51 51 48 45 43 42 42 43 44 46 46 45 45 44 44 44 44 45 46 47 48 48 49 49 50 51 51 51 51 51 50 49 48 47 46 45 45 44 42 41 39 37 36 34 33 31 30 30 30 31 32 33 35 36 37 38 38
84 84 85 85 86 86 86 86 86 86 86 85 85 84 82 81 79 77 74 72 68 65 61 58 55 52 50 48 46 46 46 44 42 40 40 41 42 44 45 44 43 42 42 42 42 43 44 45 46 47 47 48 48 49 50 50 51 50 50 49 48 47 46 45 44 43 42 41 40 38 36 34 33 31 30 28 27 27 27 28 29 30 32 33 34 35
85 86 86 86 87 87 87 86 86 85 85 83 82 80 78 75 72 69 66 63 60 56 52 49 47 45 43 42 41 42 42 41 40 40 40 41 42 43 43 42 41 40 40 40 41 42 43 44 45 45 46 47 47 48 49 49 50 50 49 48 47 46 45 43 42 42 41 40 39 37 35 34 32 31 29 27 26 25 24 24 25 26 28 29 31 32
86 86 86 86 86 86 85 84 83 82 81 79 76 74 70 67 63 60 57 54 50 46 44 41 39 37 37 37 38 40 40 40 40 40 41 41 41 41 41 40 39 39 38 38 39 40 41 42 43 44 45 45 46 47 48 48 49 49 48 48 47 45 44 42 41 40 39 38 37 36 35 33 32 30 29 27 25 24 23 22 22 23 24 25 27 28
85 85 85 84 84 83 82 80 79 76 74 71 68 65 61 57 53 50 47 44 41 38 36 35 34 33 34 36 38 39 41 41 41 41 41 40 40 39 38 38 38 38 37 37 37 38 39 41 42 42 43 44 45 46 46 47 47 48 47 47 46 45 43 42 40 39 38 37 36 35 34 33 32 30 29 27 26 24 23 21 21 21 21 22 23 25
83 83 82 81 80 78 76 74 72 69 66 62 59 55 51 47 43 40 38 35 33 31 31 31 32 33 34 36 38 40 41 41 41 40 40 39 38 37 37 37 37 37 37 36 36 36 37 39 40 41 42 42 43 44 45 45 46 46 46 46 45 44 43 41 40 38 37 36 36 35 34 33 32 30 29 27 26 24 23 22 21 20 20 20 21 23
80 79 78 76 75 72 69 66 63 60 56 52 48 44 40 37 34 31 30 29 28 29 30 31 33 34 35 36 38 40 41 41 41 40 38 37 36 36 35 36 36 36 36 36 35 35 35 36 38 40 41 41 42 43 43 44 45 45 45 45 44 44 42 41 40 38 37 36 36 35 34 33 32 30 29 27 26 25 24 22 21 20 20 20 20 22
75 74 72 70 67 64 60 57 53 49 45 41 37 34 31 28 26 25 25 26 27 29 30 32 33 35 36 37 38 40 41 41 40 39 37 36 35 35 35 35 35 35 36 36 35 35 35 35 36 38 39 40 41 42 42 43 43 43 43 43 43 43 42 41 40 38 37 37 36 35 34 33 32 31 29 28 26 25 24 23 22 21 20 19 20 20
69 67 64 61 57 53 50 45 41 37 34 30 27 25 24 23 23 24 25 26 28 30 31 33 34 36 37 38 39 40 40 40 39 37 36 35 34 34 34 34 34 34 35 35 35 35 35 35 36 37 38 39 40 40 41 41 41 42 42 42 42 42 41 40 39 38 38 37 36 35 34 33 32 31 30 28 27 25 24 23 22 20 19 19 19 19
60 57 53 50 46 42 38 34 30 27 24 22 21 20 21 22 23 25 27 28 30 31 33 34 35 36 37 38 39 40 40 39 38 36 35 34 33 33 33 33 33 34 34 34 34 35 35 36 36 36 37 38 39 39 39 40 40 40 40 40 40 40 40 40 39 38 37 37 36 35 34 33 32 31 30 29 27 26 24 23 22 20 19 18 18 18
50 46 42 38 34 31 27 24 22 20 19 18 19 20 22 23 25 27 29 30 31 32 33 34 36 37 37 38 39 39 39 38 37 35 34 33 33 32 33 33 33 33 33 33 34 34 35 36 36 37 37 37 38 38 38 38 38 38 38 38 39 39 40 39 39 38 37 37 36 35 34 33 32 31 30 29 27 26 25 23 22 21 19 18 17 17
38 35 31 28 25 22 20 18 18 17 18 19 20 22 24 26 27 29 30 31 32 33 34 35 36 37 38 38 39 38 38 37 36 34 33 32 32 32 32 32 32 33 33 33 34 34 35 36 36 37 37 37 37 37 37 37 36 36 36 36 37 38 38 39 39 38 37 37 36 35 34 33 32 31 29 28 27 26 25 24 23 22 20 19 18 17
28 25 22 20 19 17 17 17 17 18 19 21 23 24 26 27 28 29 30 31 32 33 34 35 36 37 38 39 38 38 37 36 35 34 33 32 32 32 32 32 32 32 33 33 34 34 35 36 36 37 37 37 36 36 36 35 35 34 34 34 34 35 36 37 38 38 37 37 36 36 35 34 33 31 30 28 27 26 25 24 24 23 21 20 19 18
20 19 18 17 16 16 17 18 19 20 22 23 25 26 27 28 29 30 31 31 32 33 34 36 37 38 38 38 38 37 36 35 34 33 32 32 32 32 31 32 32 32 33 33 34 34 35 36 36 36 37 37 36 36 35 34 34 33 32 32 32 33 34 35 36 36 36 36 36 36 36 35 34 32 31 29 27 26 25 25 24 24 23 22 21 20
17 16 16 16 17 18 19 20 21 22 24 25 26 27 28 29 30 31 31 32 32 33 34 35 37 37 38 38 38 37 36 34 34 33 32 32 31 31 31 31 31 32 32 33 34 34 35 36 36 36 36 36 36 35 35 34 33 32 31 30 30 31 32 33 34 34 35 35 35 35 36 35 35 33 32 30 29 28 27 26 25 24 24 23 22 21
16 17 17 18 19 20 21 22 23 24 25 26 27 28 29 30 30 31 31 32 32 33 34 35 36 37 37 37 37 36 35 34 33 32 32 32 31 31 31 31 32 32 32 33 34 34 35 36 36 36 36 36 35 35 34 34 34 33 31 30 30 30 31 32 33 33 33 34 34 34 34 34 34 34 33 32 30 29 28 27 26 25 24 23 22 21
18 18 19 20 21 22 23 24 25 26 27 27 28 29 30 30 31 31 31 31 32 33 33 35 35 36 37 37 36 36 35 34 33 32 32 32 31 31 31 31 32 32 32 33 33 34 35 35 36 36 36 35 35 34 34 34 34 33 32 31 31 31 32 33 33 33 33 33 33 33 33 33 33 33 32 32 30 29 28 27 26 25 24 23 22 21
19 20 21 22 23 24 25 25 26 27 28 29 29 30 30 30 31 31 31 31 31 32 33 34 35 36 36 36 36 35 35 34 33 32 32 31 31 31 31 31 32 32 32 32 33 34 34 35 35 35 35 35 34 34 33 33 34 34 33 33 33 33 33 34 35 35 35 34 33 33 32 32 32 31 31 31 30 28 27 26 26 25 25 24 22 21
21 22 23 24 25 25 26 27 28 28 29 30 30 30 30 30 30 30 30 30 31 32 32 33 34 35 35 35 35 35 35 34 33 33 32 32 31 31 31 31 31 32 32 32 33 33 34 34 34 35 34 34 34 33 33 33 33 34 34 35 35 35 35 36 36 36 36 35 34 33 32 32 31 31 30 29 29 27 26 25 25 24 24 23 22 21
23 24 25 26 26 27 28 28 29 30 30 30 30 30 30 30 30 30 30 30 30 31 32 33 33 34 34 34 34 34 34 34 34 33 32 32 31 31 31 31 31 32 32 32 33 33 33 33 33 34 34 34 34 33 33 33 33 34 35 36 36 37 37 37 37 36 36 35 35 34 33 32 31 30 30 29 28 27 25 24 23 23 23 22 22 21
25 26 27 27 28 29 29 30 30 31 31 31 31 30 30 30 29 29 29 29 30 30 31 32 33 33 33 34 34 34 34 34 34 33 33 32 32 31 31 31 31 31 32 32 32 32 32 32 32 32 33 33 33 33 34 34 34 35 35 36 37 37 38 37 37 36 35 34 34 33 32 31 30 30 29 29 28 27 25 24 23 22 22 21 21 20
27 28 29 29 30 30 30 31 31 31 31 31 31 30 30 29 29 29 29 29 29 30 31 32 32 33 33 33 33 33 33 33 33 33 33 32 32 32 32 31 31 32 32 32 32 32 32 32 32 32 32 32 33 33 34 34 35 35 36 37 37 37 38 37 37 36 34 33 32 31 30 30 29 29 28 28 28 27 26 24 23 22 22 21 20 19
29 30 30 30 31 31 31 31 31 31 31 30 30 30 29 29 28 28 28 28 29 30 30 31 32 32 33 33 33 33 33 32 32 32 32 32 32 32 32 32 32 32 32 32 31 31 31 31 32 32 32 32 32 33 34 35 36 36 37 37 37 37 37 36 36 35 33 32 30 29 28 28 27 27 27 27 27 27 26 25 24 23 21 20 19 18
30 31 31 31 31 31 31 31 30 30 30 30 30 29 29 28 28 28 28 28 29 29 30 31 31 32 32 33 33 33 33 32 32 32 32 32 32 32 32 32 32 31 31 31 31 31 31 31 31 32 32 33 33 33 34 35 36 37 37 37 37 36 36 35 34 33 31 30 28 27 26 25 25 25 25 25 25 26 26 26 25 23 22 20 19 17
30 31 31 31 31 31 30 30 30 30 29 29 29 29 28 28 28 28 28 28 28 29 30 30 31 32 32 32 33 33 33 33 32 32 32 31 31 31 31 31 31 31 31 31 30 30 30 30 31 32 33 34 34 34 35 35 36 37 37 37 36 35 35 33 32 31 29 28 26 25 24 23 23 23 23 23 23 24 25 25 25 24 22 21 19 18
30 30 30 30 30 30 30 29 29 29 29 29 29 29 28 28 28 28 28 28 28 29 30 30 31 31 32 32 32 33 33 33 33 32 32 31 31 31 30 30 30 30 30 29 29 29 29 29 30 31 33 35 35 36 36 36 36 36 36 36 35 34 33 31 30 29 27 26 24 23 22 21 21 22 21 21 21 22 24 24 24 24 22 21 20 18
30 30 30 30 29 29 29 29 29 29 29 28 28 28 28 28 28 28 28 28 28 29 30 30 31 31 31 32 32 32 33 33 33 33 32 32 31 31 30 30 30 29 29 28 28 28 27 27 28 29 32 35 36 37 37 37 37 36 35 34 33 32 31 29 28 27 26 24 23 22 21 20 20 20 20 20 21 21 23 24 24 23 22 21 20 18
Wind_Direction
285 284 282 281 281 282 284 285 286 287 287 287 288 288 289 289 291 292 294 295 295 295 294 293 292 291 291 291 291 291 292 293 293 294 294 294 294 294 294 293 293 293 292 292 292 291 291 291 290 290 289 289 289 288 288 288 287 287 287 286 286 285 285 285 284 284 283 283 282 282 281 281 280 279 279 278 277 277 276 275 275 274 273 273 272 272
285 284 282 280 280 281 283 285 286 287 287 287 287 287 287 288 290 292 293 294 294 293 292 291 291 291 291 291 292 293 293 294 294 294 294 294 294 294 294 293 293 293 293 292 292 292 291 291 290 290 290 289 289 289 289 288 288 288 287 287 287 286 286 286 285 285 284 284 283 283 282 281 280 280 279 278 277 277 276 275 275 274 273 273 272 272
285 284 282 281 280 282 284 286 288 289 289 289 288 288 288 289 290 291 292 292 291 290 290 290 290 291 292 293 294 294 294 295 295 295 295 294 294 294 294 294 293 293 293 292 292 292 292 291 291 291 290 290 290 290 289 289 289 288 288 288 288 287 287 287 286 286 285 284 284 283 282 281 281 280 279 278 277 277 276 275 275 274 273 273 272 272
285 284 283 282 282 283 285 288 290 292 292 292 291 291 291 291 291 291 290 289 289 289 290 290 292 293 294 294 295 295 295 295 295 295 295 294 294 294 294 294 294 293 293 293 293 292 292 292 291 291 291 291 291 290 290 290 290 290 289 289 289 288 288 288 287 286 285 285 284 283 282 281 281 280 279 278 278 277 276 276 275 274 274 273 272 272
285 285 284 284 284 285 287 288 290 291 292 292 292 292 291 291 290 289 288 288 289 290 291 293 294 294 295 295 295 295 295 295 295 295 295 295 295 294 294 294 294 294 294 293 293 293 293 292 292 292 292 292 292 291 291 291 291 291 291 290 290 289 289 288 287 287 286 285 284 283 282 281 281 280 279 279 278 277 276 276 275 275 274 273 273 272
285 285 285 285 285 286 287 288 288 289 290 290 290 290 289 289 288 287 287 289 290 292 293 295 295 296 296 295 295 295 295 295 295 295 295 295 295 295 295 295 294 294 294 294 294 293 293 293 293 293 293 293 293 293 293 292 292 292 292 291 290 290 289 288 287 287 286 285 284 283 282 282 281 280 279 279 278 277 277 276 275 275 274 273 273 272
284 284 284 285 285 286 287 287 288 288 288 288 288 288 287 287 287 287 289 291 293 294 295 296 296 296 296 295 295 295 295 295 295 296 296 296 296 295 295 295 295 295 294 294 294 294 294 294 294 294 294 294 294 294 294 293 293 293 292 291 291 290 289 288 287 286 286 285 284 283 283 282 281 280 280 279 278 277 277 276 275 275 274 273 272 272
284 285 285 286 287 287 288 288 288 288 287 287 286 286 286 286 288 289 291 293 295 296 296 296 296 296 296 295 295 295 295 296 296 296 296 296 296 296 296 295 295 295 295 295 295 295 295 295 295 295 295 295 295 295 294 294 293 293 292 291 290 290 289 288 287 286 286 285 284 284 283 282 281 281 280 279 278 277 276 276 275 274 273 273 272 272
286 287 288 288 289 289 289 288 287 287 286 286 286 286 287 289 290 292 294 295 296 296 297 297 296 296 295 295 295 295 296 296 296 296 297 296 296 296 296 296 296 296 296 296 296 296 296 296 296 296 296 296 296 295 295 294 293 293 292 291 290 289 288 288 287 286 286 285 284 284 283 282 281 280 279 278 277 277 276 275 274 273 273 272 272 271
288 289 289 290 289 289 288 287 286 286 286 286 287 289 290 292 293 294 295 296 297 297 297 297 296 296 296 296 296 296 296 297 297 297 297 297 297 296 296 296 296 296 297 297 297 297 297 298 298 297 297 296 296 295 294 294 293 292 291 290 290 289 289 288 287 287 286 285 285 284 283 282 281 280 279 278 277 276 275 274 273 272 272 271 271 270
290 290 290 289 288 287 286 286 286 287 288 289 290 292 293 294 295 296 296 297 297 297 297 296 296 296 296 296 296 296 297 297 297 297 297 297 297 297 297 297 297 297 298 298 298 298 298 298 298 298 297 296 295 294 294 293 292 292 291 290 290 290 289 289 288 288 287 286 285 284 283 282 281 279 278 277 276 275 274 273 272 272 271 270 270 270
290 289 288 287 287 287 287 288 288 290 291 292 293 294 295 295 296 296 297 297 297 297 296 296 296 296 296 296 296 296 297 297 297 298 298 298 298 298 298 298 298 299 299 299 299 299 299 299 298 297 296 296 295 294 293 293 292 292 292 292 291 291 291 291 290 290 289 288 287 286 284 283 281 280 278 277 276 274 273 272 271 271 270 270 269 269
288 288 288 288 288 289 289 290 291 292 293 294 295 295 296 296 297 297 297 297 296 296 296 296 296 296 296 296 296 296 297 297 298 298 298 298 298 298 299 299 300 300 300 300 300 299 299 298 298 297 296 295 295 294 294 294 294 294 294 294 294 294 294 293 293 292 291 290 289 288 286 285 283 281 280 278 276 275 273 272 271 270 269 269 268 268
288 288 289 289 290 291 292 292 293 294 295 295 296 296 296 296 297 297 297 296 296 296 296 296 296 296 296 296 296 297 297 297 298 298 299 299 299 299 300 300 301 301 301 300 300 299 298 298 297 297 296 296 295 295 295 295 295 296 296 296 296 296 296 296 295 295 294 293 292 290 289 287 286 284 282 280 278 276 274 272 271 270 269 268 267 267
290 290 291 291 292 293 293 294 295 295 295 296 296 296 296 296 296 296 296 296 296 295 296 296 296 296 296 296 297 297 297 298 298 299 299 300 300 300 301 301 301 301 300 300 299 298 298 297 297 297 296 296 296 296 297 297 297 297 298 298 298 299 299 298 298 297 297 295 294 293 291 290 288 286 284 282 280 277 275 273 271 269 268 267 266 266
291 292 293 293 293 294 294 295 295 295 295 295 296 296 296 296 296 296 296 295 295 295 296 296 296 297 297 297 297 297 298 298 299 299 300 300 301 301 301 301 301 300 299 299 298 297 297 297 297 297 297 297 297 297 298 298 298 299 300 300 301 301 301 301 300 300 299 298 297 295 294 292 291 289 287 284 282 279 276 274 271 270 268 267 266 265
293 293 294 294 294 294 295 295 295 295 295 295 295 295 295 295 295 295 295 295 295 296 296 296 297 297 297 297 297 297 298 299 299 300 300 301 300 300 300 300 300 299 298 298 297 297 297 297 297 297 297 297 297 298 298 299 300 301 301 302 303 303 303 303 303 302 301 300 299 298 296 295 293 291 289 286 284 281 278 275 272 270 268 266 265 264
293 294 294 294 294 294 295 295 295 295 295 295 295 295 295 295 295 295 295 295 295 296 296 296 297 297 297 297 297 298 298 299 300 300 301 300 300 300 299 299 299 298 297 297 297 297 297 297 297 297 297 297 298 299 299 300 301 302 303 304 305 305 305 305 305 305 304 303 302 300 299 297 295 293 290 288 285 282 279 276 273 270 267 266 264 263
294 294 294 294 294 294 294 294 294 294 295 295 295 295 295 295 295 295 295 295 296 296 296 297 297 297 297 297 297 298 299 300 300 300 300 300 299 299 298 298 298 297 297 296 296 296 297 297 297 297 298 298 299 300 301 302 303 304 305 306 307 307 308 308 309 308 307 306 305 303 302 300 297 295 292 289 286 283 280 277 273 270 267 265 263 262
294 294 294 294 294 294 294 294 294 294 294 294 294 295 295 295 295 295 295 295 296 296 296 297 297 297 298 298 298 298 299 299 300 300 299 299 298 297 297 297 297 296 296 296 296 296 297 297 297 298 298 299 300 301 302 304 305 306 307 308 309 310 311 312 312 312 311 309 308 306 305 303 300 298 295 292 288 284 281 277 274 270 267 265 263 261
294 294 294 294 294 294 294 294 294 294 294 294 294 294 294 295 295 295 295 295 296 296 297 297 298 298 298 298 298 298 298 299 299 299 299 298 297 296 295 295 296 296 296 296 296 297 297 298 298 298 299 300 301 303 304 305 306 308 309 310 311 313 314 315 315 315 314 313 312 310 308 306 304 301 298 295 291 287 282 278 274 270 267 265 263 261
294 294 294 294 294 294 294 294 294 294 294 294 294 294 294 295 295 295 295 295 296 296 297 298 298 298 298 298 298 297 297 297 297 297 297 297 296 295 295 295 295 296 296 296 297 298 298 298 298 299 300 301 303 304 305 306 308 309 310 312 313 315 316 317 317 317 317 316 315 314 313 311 309 306 303 299 295 290 285 280 276 271 268 265 263 261
294 294 294 294 294 294 294 294 294 294 294 294 294 294 294 294 295 295 295 296 296 297 297 297 298 298 298 297 297 296 296 296 296 296 296 295 295 294 295 296 296 297 297 297 298 298 298 299 299 300 301 302 304 305 306 308 309 310 312 313 315 316 318 319 320 320 319 319 318 318 317 316 314 312 309 305 300 295 289 283 278 273 269 266 264 262
294 294 293 293 293 293 293 294 294 294 294 294 294 294 294 294 295 295 295 296 296 297 297 297 297 297 297 296 295 295 294 294 295 295 295 295 295 295 296 297 298 298 298 298 298 299 299 299 300 301 302 304 305 306 307 309 310 311 313 314 316 318 319 320 321 322 322 322 321 321 320 320 319 317 314 311 306 301 294 288 282 277 272 268 265 263
293 293 293 293 293 293 293 293 293 293 293 294 294 294 294 294 295 295 296 296 297 297 297 297 296 295 294 294 293 293 293 293 294 295 296 297 297 297 298 298 298 298 299 299 299 300 300 301 301 302 304 305 306 307 308 310 311 312 313 315 317 319 320 322 323 324 324 324 324 323 323 323 322 321 319 316 311 306 300 293 287 281 275 271 267 264
293 293 293 293 293 293 293 293 293 293 293 293 294 294 294 295 296 296 296 297 297 297 296 296 295 294 293 292 291 292 292 294 295 297 298 299 299 299 299 299 299 299 299 300 301 301 301 302 303 304 305 306 307 308 309 310 311 313 314 316 318 319 321 323 324 326 326 327 326 326 326 325 325 324 323 320 316 311 305 298 291 285 279 273 269 265
293 293 293 293 293 293 293 293 293 293 294 294 294 295 295 296 296 297 297 296 296 296 295 294 293 292 292 291 292 292 294 296 298 300 301 301 301 300 300 299 299 299 300 301 302 302 302 303 304 305 306 307 308 309 310 311 312 313 314 316 318 320 322 323 325 327 328 329 329 329 328 328 327 326 325 323 320 316 310 303 296 289 282 276 271 266
293 293 293 293 294 294 294 294 294 294 294 295 295 296 296 297 297 297 296 296 295 295 294 292 292 291 291 292 294 295 296 298 300 302 303 303 302 301 300 300 299 300 301 302 303 303 303 304 305 306 307 308 309 310 310 311 312 313 315 316 318 320 322 324 326 328 329 330 331 331 331 330 330 329 327 325 323 319 313 307 299 292 285 278 273 267
294 294 294 294 294 294 295 295 295 295 296 296 297 297 298 298 297 297 296 295 295 294 293 292 292 293 293 295 296 298 299 300 302 304 305 304 302 301 300 300 300 300 301 302 303 304 304 305 306 307 308 309 309 310 311 312 313 314 315 316 318 320 322 324 326 328 330 331 332 332 333 332 332 331 329 327 324 321 316 310 303 295 287 280 274 268
295 295 295 295 295 295 296 296 296 297 297 298 298 298 298 298 297 296 295 295 294 294 294 294 295 296 297 298 299 300 302 303 304 305 305 304 302 301 300 300 300 301 302 303 303 304 304 305 307 308 309 309 310 311 312 312 313 314 315 316 318 319 321 324 326 328 329 330 331 332 333 333 333 332 331 329 326 323 318 312 306 298 290 282 275 269
296 296 296 296 296 297 297 297 298 298 299 299 299 299 299 298 298 296 295 295 295 296 296 297 298 299 300 301 302 303 304 305 306 306 306 304 302 301 301 301 301 302 302 303 303 304 305 306 307 309 310 310 311 312 313 313 314 315 315 316 318 319 321 323 325 327 329 330 331 331 332 333 333 333 332 331 328 325 321 316 310 303 295 286 278 271
297 297 298 298 298 299 299 300 300 300 301 301 301 301 300 299 298 298 297 298 299 299 300 301 301 302 303 304 305 305 306 307 307 307 306 304 302 301 301 301 302 302 303 303 304 305 306 307 308 310 311 311 312 313 313 314 314 315 316 316 317 318 320 322 325 326 328 329 329 330 331 332 333 333 333 332 330 327 324 320 314 308 301 292 284 276
299 299 299 300 300 301 302 302 303 303 304 304 304 303 302 301 301 301 301 302 302 303 303 304 305 305 306 307 307 308 308 308 308 307 305 303 302 302 302 302 302 303 304 304 305 306 307 309 310 311 312 312 313 313 314 314 315 315 316 316 317 318 320 322 324 325 327 328 328 329 330 331 331 332 332 331 330 329 326 323 318 313 306 299 291 283
300 301 302 302 303 304 306 307 308 308 309 309 308 307 306 305 305 305 305 305 305 306 306 307 307 308 309 309 310 310 309 309 308 307 305 303 303 302 302 303 303 303 304 304 306 307 309 310 312 313 313 313 313 313 314 314 315 315 316 316 317 318 319 321 323 324 326 327 327 328 329 329 330 330 330 330 330 329 327 324 321 316 310 303 295 287
303 304 305 307 308 310 312 314 315 316 315 313 312 310 309 308 308 308 308 308 308 308 308 309 309 310 311 311 311 311 310 309 308 306 305 304 303 303 303 304 304 304 305 305 307 308 310 312 313 314 314 314 313 313 314 314 314 315 315 316 317 317 318 320 322 323 325 326 327 327 328 328 329 329 329 329 328 328 326 324 321 318 313 306 298 289
307 309 311 314 316 318 320 322 322 320 318 315 313 312 311 310 310 309 309 309 309 310 310 311 312 312 312 313 312 312 311 309 307 306 305 304 304 304 305 305 305 306 306 307 308 310 311 313 314 314 315 314 313 313 313 314 314 315 315 316 316 317 318 320 321 323 324 325 326 326 327 327 328 328 328 328 327 326 325 323 321 318 315 310 303 293
315 318 321 324 326 328 328 326 324 321 318 315 314 313 312 311 311 311 310 311 311 312 312 313 314 314 314 314 313 312 311 309 307 306 305 305 305 305 306 307 307 307 308 309 310 311 312 314 314 315 315 314 313 313 312 313 314 314 315 316 316 317 318 319 321 322 323 324 325 326 326 327 327 327 327 327 326 325 324 322 320 318 316 313 308 301
326 329 332 333 333 331 328 325 322 319 317 315 315 314 313 312 312 312 312 312 313 314 314 315 315 316 315 315 314 313 311 309 308 307 306 306 306 307 308 309 309 310 310 311 312 312 313 314 315 315 315 314 313 313 312 312 313 314 315 316 316 317 317 319 320 321 322 323 323 324 325 326 326 326 327 326 326 324 323 321 319 318 316 314 312 308
336 337 336 335 332 328 325 322 320 318 317 316 315 314 314 313 313 312 313 313 314 315 316 317 317 317 317 316 315 314 312 310 309 308 307 307 308 309 310 311 311 312 312 313 313 314 314 315 315 315 314 314 313 313 313 313 313 314 315 316 316 317 317 318 319 320 321 321 321 322 322 323 324 324 324 324 324 322 321 320 319 318 317 316 314 312
339 337 334 331 328 325 322 320 319 318 317 316 315 315 314 314 313 313 314 314 315 316 317 318 318 318 318 317 316 314 313 311 310 309 309 309 310 311 312 313 313 314 314 314 314 314 314 314 314 314 314 314 314 313 313 313 314 315 316 317 317 318 318 319 319 320 320 320 319 319 320 320 321 321 321 321 321 320 319 319 318 317 317 316 315 313
335 332 329 327 324 322 321 319 318 317 317 316 315 315 314 314 314 314 314 315 316 317 318 319 320 320 319 318 317 316 314 312 311 311 311 311 312 313 314 315 315 315 316 316 315 315 314 314 314 314 314 314 314 314 314 314 314 316 317 318 319 320 320 320 320 321 320 320 319 318 318 318 317 317 318 318 318 318 318 318 317 316 315 314 313 312
330 328 326 324 323 321 320 319 318 317 316 316 315 315 315 315 314 314 315 315 317 318 319 320 321 321 321 320 319 317 316 314 313 313 313 314 314 315 315 316 316 317 317 316 316 315 314 314 313 313 313 314 314 314 314 314 315 317 318 320 321 322 322 322 322 322 322 321 320 318 317 316 315 315 315 315 316 317 318 317 316 315 313 312 311 310
327 326 324 323 322 321 319 318 318 317 316 316 315 315 315 315 314 314 315 316 317 319 320 321 322 323 323 323 322 320 319 317 316 315 315 315 316 316 317 317 318 318 318 318 317 316 315 314 313 313 313 314 314 314 314 315 316 318 319 321 322 323 323 323 323 323 323 322 321 319 318 316 315 314 314 314 315 316 317 317 315 313 311 309 308 307
325 324 323 322 321 320 319 318 317 316 316 316 315 315 315 314 314 314 315 316 317 319 321 322 323 324 324 324 324 323 321 320 318 317 317 317 317 317 318 318 319 319 319 318 318 317 315 314 313 313 314 314 314 314 315 316 317 319 320 322 323 324 324 324 324 324 323 322 321 320 318 317 315 315 314 314 315 316 317 317 315 312 309 307 306 305
324 323 323 322 320 319 319 318 317 316 316 316 315 315 314 314 314 314 315 316 317 319 321 323 324 325 326 326 326 325 324 322 321 320 319 318 319 319 319 319 320 320 320 319 319 317 316 315 314 314 314 314 314 315 315 316 318 320 321 323 323 324 324 324 324 324 323 323 321 320 318 317 316 315 315 315 315 316 317 317 315 312 309 306 305 304
324 323 322 321 320 319 318 317 317 316 316 316 315 315 314 314 314 314 315 316 318 320 322 323 325 326 327 327 327 326 325 324 323 322 321 320 320 320 320 320 320 321 320 320 320 319 318 317 316 315 315 315 315 315 316 317 319 321 322 323 324 324 324 324 324 324 324 323 322 320 318 316 315 315 315 315 315 316 316 316 314 311 309 307 305 305
323 322 321 320 319 319 318 318 317 317 316 316 315 315 314 314 314 314 315 316 318 320 322 324 325 326 327 327 327 326 326 325 324 323 322 322 321 321 321 321 321 321 321 321 321 320 319 318 317 317 316 316 316 316 317 318 320 322 323 324 324 324 325 324 324 324 324 323 322 320 318 316 315 314 314 314 314 314 315 315 313 312 310 309 309 309
322 321 321 320 320 319 319 318 318 317 317 316 315 315 315 314 314 315 316 317 319 321 323 324 326 327 327 327 327 327 326 326 325 324 323 323 322 322 321 321 321 322 322 322 322 322 321 320 319 318 318 317 317 318 318 320 321 323 324 325 325 325 324 324 323 323 323 323 321 319 317 315 314 314 313 313 313 312 312 313 313 312 312 312 313 314
323 322 322 322 321 321 320 320 319 318 317 317 316 316 315 315 315 315 316 317 319 321 323 324 325 326 327 327 327 327 326 326 325 324 324 323 322 322 321 321 321 321 322 323 323 323 323 322 321 319 318 318 318 319 320 321 322 323 324 324 325 324 324 323 323 322 322 321 320 319 316 314 312 311 311 311 310 309 309 309 310 312 313 313 315 316
325 324 324 324 323 323 322 321 320 319 319 318 317 316 316 316 316 316 317 318 319 321 322 324 325 326 326 327 327 327 327 326 326 325 324 323 322 322 321 321 321 322 322 323 324 324 324 323 322 320 318 318 318 319 320 321 323 324 324 324 324 324 323 323 322 322 321 321 320 318 316 313 311 309 308 307 306 305 304 305 307 309 310 311 313 314
327 327 327 326 325 325 324 322 321 321 319 319 318 317 317 317 316 317 317 318 319 320 322 323 324 325 326 327 327 328 327 327 326 325 324 323 323 322 322 321 321 322 323 324 324 324 324 323 322 320 318 317 317 318 320 321 323 324 325 325 325 324 324 323 323 322 321 320 319 318 315 313 310 308 306 305 303 301 301 302 304 306 307 308 308 309
Height
5661 5660 5658 5657 5656 5653 5651 5650 5648 5647 5645 5643 5642 5640 5639 5637 5635 5633 5632 5630 5628 5627 5625 5623 5621 5619 5617 5615 5613 5611 5609 5608 5606 5605 5603 5602 5600 5598 5597 5595 5594 5592 5591 5589 5588 5586 5585 5583 5582 5581 5579 5578 5576 5575 5573 5572 5571 5569 5568 5566 5564 5563 5562 5560 5558 5556 5555 5553 5551 5549 5548 5546 5544 5543 5541 5540 5538 5537 5536 5534 5533 5532 5532 5531 5530 5529
5657 5656 5654 5653 5651 5649 5647 5645 5644 5643 5640 5639 5637 5636 5634 5632 5630 5628 5626 5624 5622 5621 5619 5617 5615 5613 5611 5608 5606 5604 5603 5601 5599 5598 5596 5594 5593 5591 5590 5588 5587 5585 5583 5582 5581 5579 5578 5576 5575 5573 5572 5570 5569 5567 5566 5564 5563 5561 5559 5558 5556 5554 5553 5551 5549 5547 5545 5543 5541 5539 5538 5535 5533 5532 5530 5529 5527 5526 5524 5523 5522 5521 5520 5519 5519 5518
5653 5651 5649 5648 5647 5645 5643 5640 5639 5638 5636 5634 5632 5631 5629 5627 5625 5623 5621 5619 5616 5614 5612 5610 5608 5606 5604 5602 5600 5598 5596 5594 5593 5591 5589 5588 5586 5584 5583 5581 5580 5578 5576 5575 5573 5572 5570 5568 5567 5565 5564 5563 5561 5559 5558 5556 5554 5553 5551 5549 5547 5545 5543 5542 5539 5538 5535 5533 5531 5529 5527 5525 5523 5521 5519 5518 5516 5514 5513 5512 5511 5510 5509 5508 5508 5507
5648 5647 5645 5643 5642 5640 5638 5636 5634 5632 5631 5629 5627 5626 5624 5622 5620 5618 5616 5613 5611 5608 5606 5603 5602 5599 5597 5595 5593 5591 5589 5588 5586 5584 5582 5581 5579 5577 5576 5574 5572 5571 5569 5567 5566 5564 5562 5561 5559 5558 5556 5554 5553 5551 5549 5548 5546 5544 5542 5540 5538 5536 5534 5532 5529 5527 5525 5522 5520 5518 5516 5514 5512 5510 5508 5506 5505 5504 5503 5501 5500 5499 5499 5498 5498 5497
5644 5642 5640 5639 5638 5635 5633 5631 5629 5627 5625 5624 5622 5620 5618 5617 5615 5613 5610 5608 5605 5603 5600 5597 5595 5593 5590 5588 5586 5584 5583 5581 5579 5577 5576 5574 5572 5570 5568 5567 5565 5563 5561 5560 5558 5556 5554 5553 5551 5549 5548 5546 5544 5542 5540 5538 5537 5535 5533 5530 5528 5526 5523 5521 5518 5516 5514 5512 5509 5507 5505 5503 5501 5500 5498 5496 5495 5494 5493 5492 5491 5490 5489 5489 5488 5488
5639 5637 5635 5634 5632 5630 5628 5626 5624 5622 5620 5618 5617 5615 5613 5611 5609 5607 5604 5602 5599 5597 5594 5591 5589 5586 5584 5581 5579 5578 5576 5574 5573 5571 5569 5567 5565 5563 5562 5560 5558 5556 5554 5552 5550 5548 5546 5545 5543 5541 5539 5538 5536 5533 5531 5529 5527 5525 5523 5520 5518 5516 5513 5511 5508 5506 5503 5501 5499 5497 5495 5493 5492 5490 5489 5488 5486 5485 5484 5483 5483 5482 5481 5481 5480 5479
5633 5632 5630 5628 5627 5625 5623 5620 5618 5617 5615 5613 5612 5610 5608 5606 5603 5601 5599 5596 5593 5591 5588 5585 5583 5580 5577 5575 5573 5571 5570 5568 5566 5564 5562 5560 5558 5556 5554 5552 5550 5548 5546 5544 5542 5540 5538 5537 5535 5533 5531 5528 5527 5524 5522 5520 5518 5515 5513 5510 5508 5506 5503 5501 5498 5496 5494 5492 5490 5488 5487 5485 5484 5482 5481 5480 5478 5478 5477 5476 5475 5474 5473 5473 5473 5472
5628 5627 5625 5623 5621 5619 5618 5615 5613 5612 5610 5608 5606 5604 5602 5600 5598 5596 5593 5590 5588 5585 5582 5579 5576 5573 5571 5568 5566 5564 5563 5562 5560 5558 5556 5554 5552 5549 5547 5545 5543 5541 5539 5537 5534 5532 5530 5528 5526 5524 5522 5519 5517 5515 5512 5510 5508 5505 5503 5501 5498 5496 5494 5492 5490 5488 5486 5484 5483 5481 5479 5478 5476 5475 5474 5473 5472 5471 5470 5469 5468 5467 5467 5466 5466 5465
5623 5622 5620 5619 5617 5615 5612 5610 5608 5606 5604 5602 5600 5598 5597 5594 5592 5590 5588 5585 5582 5579 5576 5574 5571 5567 5564 5561 5559 5558 5556 5555 5553 5552 5550 5547 5545 5543 5540 5538 5536 5533 5531 5528 5526 5524 5522 5520 5518 5515 5513 5510 5508 5505 5503 5501 5498 5496 5494 5492 5490 5488 5486 5484 5482 5480 5479 5477 5475 5474 5473 5471 5470 5468 5467 5466 5465 5464 5463 5462 5462 5461 5460 5459 5459 5458
5619 5617 5615 5613 5611 5610 5607 5604 5601 5599 5598 5596 5593 5592 5590 5588 5586 5583 5581 5579 5576 5573 5570 5568 5565 5562 5558 5554 5552 5551 5550 5548 5547 5545 5543 5541 5538 5536 5533 5531 5529 5526 5523 5521 5518 5516 5513 5511 5509 5506 5503 5501 5498 5496 5494 5492 5490 5488 5486 5484 5482 5480 5478 5477 5475 5473 5472 5470 5468 5467 5466 5464 5463 5461 5460 5459 5458 5457 5456 5455 5454 5454 5453 5453 5453 5452
5613 5612 5610 5608 5605 5603 5602 5599 5596 5593 5592 5589 5587 5585 5583 5582 5580 5578 5575 5573 5570 5567 5564 5562 5559 5556 5553 5549 5546 5544 5543 5543 5541 5538 5536 5534 5531 5529 5527 5524 5522 5519 5516 5513 5510 5508 5505 5503 5500 5497 5494 5492 5489 5487 5485 5483 5482 5480 5478 5476 5475 5473 5471 5470 5468 5466 5465 5463 5461 5459 5458 5456 5455 5453 5452 5451 5450 5449 5449 5448 5448 5447 5447 5446 5446 5445
5608 5606 5604 5602 5600 5597 5595 5593 5590 5588 5586 5584 5581 5578 5576 5575 5573 5572 5569 5566 5564 5562 5559 5556 5553 5550 5547 5543 5540 5538 5537 5536 5535 5533 5530 5527 5524 5521 5519 5517 5514 5511 5509 5506 5502 5499 5497 5494 5492 5488 5486 5483 5481 5479 5477 5475 5474 5473 5471 5469 5468 5466 5464 5463 5461 5459 5457 5455 5453 5451 5449 5448 5446 5445 5444 5443 5442 5441 5441 5440 5440 5439 5439 5439 5439 5438
5603 5601 5598 5596 5593 5591 5589 5587 5584 5582 5580 5578 5575 5573 5570 5568 5566 5565 5563 5560 5558 5556 5554 5551 5547 5543 5540 5537 5534 5533 5531 5530 5529 5526 5524 5520 5517 5514 5512 5510 5507 5503 5501 5498 5494 5490 5488 5486 5484 5480 5477 5475 5473 5471 5469 5468 5467 5465 5464 5462 5461 5459 5457 5455 5453 5451 5449 5447 5444 5443 5441 5439 5437 5436 5434 5434 5433 5433 5432 5432 5431 5431 5431 5431 5431 5431
5597 5595 5593 5590 5587 5585 5583 5580 5578 5576 5573 5571 5569 5567 5565 5562 5560 5558 5557 5554 5552 5550 5548 5546 5542 5538 5534 5530 5527 5526 5525 5525 5523 5521 5518 5513 5509 5507 5506 5503 5500 5496 5493 5491 5487 5483 5480 5478 5476 5473 5470 5468 5466 5464 5462 5461 5459 5458 5457 5455 5453 5452 5450 5448 5445 5443 5441 5438 5436 5434 5432 5430 5428 5427 5425 5424 5424 5423 5423 5423 5423 5423 5423 5423 5423 5423
5591 5589 5586 5583 5581 5578 5577 5574 5572 5569 5567 5565 5563 5561 5558 5556 5554 5552 5551 5548 5545 5543 5542 5539 5537 5533 5528 5524 5520 5519 5519 5518 5517 5515 5512 5508 5503 5499 5498 5498 5494 5489 5486 5484 5481 5477 5473 5472 5470 5467 5464 5461 5459 5457 5456 5454 5453 5452 5450 5449 5447 5445 5443 5440 5438 5435 5433 5430 5428 5425 5423 5421 5419 5418 5416 5415 5415 5414 5414 5414 5414 5414 5415 5415 5415 5416
5585 5583 5580 5577 5574 5572 5570 5568 5566 5563 5561 5559 5557 5555 5553 5550 5548 5546 5544 5542 5539 5537 5535 5533 5531 5527 5523 5517 5513 5513 5513 5513 5511 5509 5507 5503 5497 5493 5491 5491 5489 5484 5480 5478 5475 5472 5468 5466 5463 5461 5458 5456 5453 5452 5450 5448 5447 5446 5444 5443 5441 5439 5436 5434 5431 5428 5425 5423 5420 5417 5415 5413 5411 5409 5408 5407 5406 5406 5406 5406 5406 5406 5407 5407 5408 5408
5579 5576 5573 5571 5568 5566 5564 5563 5560 5558 5555 5553 5551 5548 5547 5544 5542 5540 5537 5535 5533 5530 5528 5526 5524 5522 5518 5512 5506 5504 5506 5507 5506 5503 5501 5498 5493 5487 5485 5485 5483 5480 5475 5472 5469 5466 5463 5461 5458 5456 5453 5451 5448 5447 5445 5443 5442 5441 5439 5438 5435 5433 5431 5428 5425 5422 5419 5416 5413 5410 5407 5405 5403 5401 5400 5398 5398 5398 5398 5398 5398 5398 5399 5400 5400 5401
5573 5570 5568 5565 5563 5561 5559 5557 5554 5551 5549 5547 5545 5543 5540 5538 5536 5533 5531 5528 5526 5524 5522 5519 5517 5515 5512 5508 5503 5498 5498 5500 5500 5498 5495 5493 5488 5483 5479 5479 5478 5474 5471 5468 5464 5462 5459 5457 5454 5451 5448 5446 5444 5442 5440 5439 5438 5436 5434 5433 5430 5428 5425 5422 5419 5416 5413 5410 5407 5403 5401 5398 5396 5394 5392 5391 5390 5390 5390 5390 5391 5391 5392 5393 5393 5394
5566 5564 5562 5559 5557 5555 5553 5550 5548 5545 5543 5541 5539 5537 5534 5532 5529 5527 5524 5522 5519 5517 5515 5513 5510 5507 5505 5502 5498 5493 5492 5494 5494 5492 5489 5487 5483 5478 5474 5474 5473 5470 5466 5463 5460 5458 5455 5452 5449 5447 5444 5442 5439 5438 5436 5434 5433 5431 5429 5427 5425 5423 5420 5417 5414 5411 5407 5404 5401 5398 5394 5392 5389 5387 5385 5384 5383 5383 5383 5383 5383 5384 5385 5386 5387 5388
5560 5558 5556 5554 5552 5549 5546 5544 5541 5539 5536 5534 5532 5530 5528 5525 5523 5520 5518 5515 5513 5511 5509 5507 5504 5501 5498 5495 5492 5488 5486 5487 5487 5486 5484 5482 5478 5473 5470 5469 5468 5465 5462 5459 5456 5453 5451 5448 5445 5442 5440 5438 5435 5433 5432 5430 5428 5426 5424 5422 5420 5418 5415 5412 5408 5405 5402 5398 5395 5392 5389 5386 5383 5381 5379 5378 5377 5376 5376 5376 5377 5378 5378 5379 5380 5381
5554 5552 5549 5548 5545 5543 5539 5537 5534 5532 5530 5527 5525 5523 5521 5519 5517 5514 5511 5509 5507 5505 5502 5500 5498 5494 5491 5489 5486 5482 5480 5481 5481 5481 5478 5477 5473 5469 5466 5465 5464 5462 5458 5455 5452 5449 5447 5444 5441 5438 5436 5434 5432 5430 5428 5426 5423 5422 5419 5417 5415 5413 5410 5407 5403 5400 5397 5393 5390 5387 5383 5380 5377 5375 5373 5371 5370 5370 5370 5370 5371 5372 5372 5373 5374 5375
5548 5546 5543 5540 5538 5536 5533 5530 5527 5525 5523 5520 5518 5516 5514 5512 5510 5507 5504 5502 5500 5498 5496 5494 5491 5488 5485 5483 5479 5476 5474 5474 5475 5475 5474 5472 5469 5465 5462 5461 5460 5458 5454 5451 5448 5445 5443 5440 5437 5434 5433 5430 5428 5426 5424 5422 5419 5417 5415 5413 5410 5408 5405 5402 5399 5396 5392 5389 5385 5382 5379 5375 5373 5370 5368 5366 5365 5364 5364 5365 5365 5366 5367 5368 5369 5370
5542 5539 5536 5534 5531 5529 5526 5523 5520 5518 5515 5513 5511 5509 5507 5505 5503 5501 5498 5496 5494 5492 5490 5488 5485 5481 5478 5476 5473 5470 5468 5468 5469 5469 5469 5468 5465 5462 5458 5456 5455 5453 5450 5447 5444 5442 5439 5436 5433 5431 5429 5427 5425 5423 5420 5418 5415 5413 5411 5408 5406 5403 5401 5398 5394 5391 5388 5385 5381 5378 5374 5371 5368 5365 5363 5361 5360 5359 5359 5359 5360 5361 5362 5363 5364 5365
5535 5533 5530 5527 5524 5522 5519 5517 5514 5511 5508 5506 5504 5502 5500 5498 5496 5493 5491 5489 5487 5486 5484 5481 5479 5476 5472 5469 5467 5465 5463 5463 5464 5465 5464 5463 5461 5458 5454 5452 5451 5449 5446 5443 5441 5438 5435 5432 5429 5427 5425 5423 5421 5419 5417 5414 5412 5409 5407 5404 5402 5399 5397 5393 5391 5387 5384 5381 5378 5374 5371 5368 5365 5362 5359 5358 5356 5355 5355 5355 5355 5356 5357 5358 5359 5360
5528 5526 5523 5520 5518 5515 5513 5510 5507 5504 5502 5500 5498 5495 5493 5491 5489 5486 5484 5482 5480 5479 5478 5475 5473 5471 5468 5465 5463 5461 5459 5459 5460 5461 5460 5458 5456 5453 5450 5448 5447 5445 5442 5440 5437 5434 5431 5428 5425 5423 5422 5420 5418 5415 5413 5410 5408 5405 5403 5401 5398 5395 5393 5390 5387 5384 5381 5377 5374 5371 5368 5365 5362 5359 5357 5355 5353 5352 5351 5351 5351 5352 5353 5353 5355 5356
5521 5519 5516 5513 5511 5508 5506 5503 5500 5498 5495 5493 5490 5488 5486 5484 5482 5480 5477 5475 5474 5473 5472 5470 5468 5465 5463 5461 5459 5457 5455 5455 5456 5456 5456 5454 5452 5448 5445 5443 5443 5441 5439 5436 5433 5430 5428 5424 5422 5420 5418 5416 5414 5412 5409 5407 5404 5402 5399 5397 5394 5392 5389 5386 5383 5380 5377 5374 5371 5368 5365 5362 5359 5357 5354 5352 5350 5349 5348 5348 5348 5348 5348 5349 5350 5352
5514 5512 5509 5507 5504 5501 5498 5496 5493 5490 5487 5485 5483 5481 5479 5478 5476 5474 5471 5469 5468 5467 5466 5464 5463 5461 5459 5457 5455 5453 5452 5452 5452 5452 5451 5450 5447 5444 5441 5440 5438 5437 5436 5433 5430 5427 5424 5421 5419 5417 5415 5412 5410 5408 5406 5403 5401 5398 5396 5393 5391 5388 5386 5383 5380 5378 5374 5371 5368 5365 5363 5360 5357 5355 5353 5350 5348 5347 5346 5345 5345 5345 5345 5346 5347 5348
5507 5505 5502 5499 5497 5494 5491 5488 5486 5483 5480 5478 5476 5474 5473 5471 5470 5468 5466 5463 5463 5462 5461 5459 5458 5458 5456 5454 5452 5450 5449 5449 5448 5448 5447 5445 5443 5440 5438 5436 5435 5433 5433 5431 5428 5424 5421 5418 5416 5414 5411 5409 5407 5405 5402 5400 5397 5395 5392 5390 5388 5385 5383 5380 5378 5375 5372 5369 5366 5363 5360 5358 5355 5353 5351 5349 5347 5345 5344 5343 5343 5342 5342 5343 5343 5344
5500 5498 5495 5492 5490 5487 5484 5481 5478 5476 5473 5472 5470 5468 5466 5465 5465 5463 5461 5459 5459 5458 5457 5456 5455 5454 5453 5451 5449 5448 5446 5445 5445 5444 5443 5441 5439 5436 5434 5433 5431 5430 5429 5428 5425 5422 5418 5415 5413 5411 5408 5406 5404 5402 5399 5397 5394 5392 5389 5387 5384 5382 5379 5377 5375 5372 5369 5367 5364 5361 5358 5356 5353 5351 5349 5347 5345 5344 5343 5341 5341 5340 5340 5340 5340 5341
5493 5490 5488 5485 5483 5480 5478 5475 5472 5470 5468 5466 5464 5463 5461 5460 5459 5459 5458 5456 5456 5455 5454 5453 5452 5451 5450 5449 5447 5445 5443 5442 5441 5440 5439 5437 5435 5433 5431 5429 5428 5427 5426 5424 5423 5420 5417 5413 5410 5408 5405 5403 5401 5399 5396 5394 5392 5389 5386 5384 5381 5378 5376 5374 5372 5369 5367 5364 5362 5359 5357 5354 5352 5350 5348 5346 5344 5342 5341 5340 5339 5338 5338 5338 5338 5338
5485 5483 5480 5478 5475 5473 5471 5468 5467 5464 5463 5461 5460 5458 5458 5457 5456 5455 5454 5454 5453 5453 5452 5450 5449 5448 5447 5446 5444 5442 5440 5438 5438 5437 5435 5434 5432 5430 5428 5426 5425 5423 5422 5421 5420 5418 5416 5412 5408 5405 5402 5400 5398 5396 5393 5391 5388 5386 5383 5381 5378 5376 5373 5371 5369 5367 5364 5362 5359 5357 5355 5352 5350 5348 5346 5344 5342 5341 5339 5338 5337 5336 5336 5335 5335 5335
5478 5475 5473 5471 5469 5467 5465 5463 5461 5460 5458 5457 5456 5455 5454 5454 5453 5453 5452 5452 5451 5450 5449 5448 5447 5445 5444 5443 5441 5439 5437 5435 5434 5433 5432 5430 5428 5427 5425 5423 5422 5420 5419 5418 5417 5415 5413 5410 5407 5404 5400 5397 5395 5393 5390 5388 5386 5383 5381 5378 5376 5373 5371 5368 5366 5364 5362 5359 5357 5355 5353 5350 5348 5346 5344 5343 5341 5339 5338 5336 5335 5334 5334 5333 5333 5333
5472 5469 5467 5465 5463 5461 5460 5458 5457 5456 5455 5454 5453 5453 5452 5452 5451 5451 5450 5449 5448 5448 5447 5445 5444 5442 5441 5439 5437 5435 5434 5432 5431 5429 5428 5427 5425 5424 5422 5421 5419 5418 5416 5414 5413 5412 5409 5408 5405 5402 5399 5395 5393 5390 5388 5385 5383 5380 5378 5376 5373 5371 5368 5366 5364 5362 5359 5357 5355 5353 5351 5348 5347 5345 5343 5341 5339 5338 5336 5335 5333 5333 5332 5331 5331 5331
5467 5464 5462 5461 5459 5457 5456 5455 5454 5453 5453 5452 5452 5451 5451 5450 5449 5449 5448 5447 5446 5445 5444 5443 5441 5439 5438 5436 5434 5432 5430 5428 5427 5426 5425 5423 5422 5421 5419 5418 5416 5415 5413 5412 5410 5408 5406 5404 5402 5400 5397 5394 5391 5388 5385 5383 5380 5378 5376 5373 5371 5368 5366 5364 5362 5360 5358 5355 5353 5351 5349 5347 5345 5343 5341 5339 5338 5336 5334 5333 5332 5331 5330 5329 5328 5328
5463 5461 5459 5457 5456 5455 5453 5453 5452 5452 5451 5451 5450 5450 5449 5448 5448 5447 5446 5445 5443 5442 5441 5439 5438 5437 5435 5433 5431 5429 5428 5425 5424 5423 5421 5420 5419 5418 5416 5415 5413 5412 5410 5408 5407 5405 5403 5401 5399 5397 5394 5392 5389 5386 5383 5381 5378 5376 5373 5371 5368 5366 5364 5362 5360 5358 5356 5353 5351 5349 5347 5345 5343 5342 5340 5338 5336 5334 5333 5332 5330 5329 5328 5327 5327 5326
5460 5458 5456 5455 5454 5453 5452 5452 5451 5451 5450 5450 5449 5448 5448 5447 5446 5445 5443 5442 5441 5439 5438 5436 5435 5433 5432 5430 5428 5427 5424 5423 5421 5419 5418 5417 5416 5415 5413 5412 5410 5408 5407 5405 5403 5402 5400 5398 5396 5393 5391 5389 5387 5384 5381 5379 5376 5374 5371 5369 5366 5364 5362 5360 5358 5356 5354 5352 5350 5348 5346 5344 5342 5340 5338 5336 5335 5333 5332 5330 5329 5328 5326 5325 5325 5324
5458 5456 5455 5454 5453 5452 5452 5451 5451 5450 5449 5449 5448 5447 5446 5445 5444 5443 5441 5440 5438 5437 5435 5433 5432 5430 5428 5427 5425 5423 5421 5420 5418 5416 5415 5414 5413 5412 5410 5408 5407 5405 5403 5402 5400 5398 5397 5395 5393 5390 5388 5386 5384 5382 5380 5378 5375 5373 5370 5367 5364 5362 5360 5358 5356 5354 5352 5350 5348 5346 5344 5342 5340 5338 5337 5335 5333 5332 5330 5329 5327 5326 5325 5324 5323 5322
5456 5455 5454 5453 5453 5452 5451 5451 5450 5449 5448 5448 5447 5445 5444 5443 5442 5440 5439 5438 5436 5434 5433 5431 5429 5427 5426 5424 5422 5420 5418 5417 5415 5413 5412 5411 5409 5408 5407 5405 5403 5402 5400 5398 5397 5395 5393 5391 5389 5388 5386 5384 5382 5379 5377 5375 5373 5371 5369 5366 5363 5361 5358 5356 5354 5352 5350 5348 5346 5344 5342 5340 5338 5337 5335 5333 5332 5330 5329 5327 5326 5325 5323 5323 5321 5320
5456 5455 5454 5453 5452 5451 5451 5450 5449 5448 5447 5446 5445 5443 5442 5441 5440 5438 5437 5435 5434 5432 5430 5428 5427 5424 5423 5421 5419 5417 5415 5414 5412 5410 5409 5408 5406 5405 5403 5402 5400 5399 5397 5395 5394 5392 5390 5388 5386 5384 5383 5381 5379 5377 5375 5373 5371 5369 5368 5365 5363 5360 5357 5355 5353 5351 5349 5347 5345 5343 5341 5339 5337 5335 5333 5332 5330 5329 5327 5326 5324 5323 5322 5321 5320 5319
5455 5454 5453 5453 5452 5451 5450 5448 5448 5447 5445 5444 5443 5442 5440 5439 5438 5436 5435 5433 5432 5430 5428 5426 5424 5422 5420 5418 5416 5414 5413 5411 5409 5408 5406 5405 5403 5402 5400 5399 5398 5396 5394 5392 5391 5389 5387 5385 5383 5381 5380 5378 5376 5374 5373 5370 5368 5367 5365 5363 5361 5359 5356 5353 5351 5350 5348 5346 5344 5342 5340 5338 5336 5334 5332 5330 5329 5327 5326 5324 5323 5322 5321 5319 5319 5318
5455 5454 5453 5452 5451 5449 5448 5447 5446 5445 5444 5443 5441 5440 5438 5437 5435 5434 5432 5431 5429 5428 5426 5424 5422 5420 5418 5415 5413 5412 5410 5408 5406 5405 5403 5402 5400 5399 5397 5396 5394 5393 5391 5390 5388 5386 5384 5382 5380 5378 5377 5375 5373 5372 5370 5368 5366 5364 5362 5361 5359 5357 5355 5352 5350 5348 5346 5344 5342 5340 5338 5337 5335 5333 5331 5329 5327 5326 5324 5323 5322 5320 5319 5318 5317 5317
5454 5453 5452 5451 5450 5448 5447 5446 5445 5443 5442 5441 5439 5438 5437 5435 5433 5432 5430 5429 5427 5426 5424 5422 5420 5418 5415 5413 5411 5409 5407 5405 5403 5402 5400 5399 5397 5396 5394 5393 5391 5390 5388 5387 5385 5383 5382 5379 5378 5375 5374 5372 5371 5369 5367 5365 5363 5361 5359 5358 5356 5355 5353 5350 5348 5345 5344 5342 5340 5338 5337 5335 5333 5331 5329 5328 5326 5324 5323 5321 5320 5319 5318 5317 5316 5315
5454 5453 5451 5450 5448 5447 5446 5444 5443 5442 5440 5439 5438 5436 5435 5433 5432 5430 5428 5427 5425 5424 5422 5420 5418 5416 5413 5411 5409 5406 5404 5403 5401 5399 5398 5396 5395 5393 5392 5390 5389 5387 5386 5384 5383 5381 5379 5377 5375 5373 5371 5370 5368 5366 5364 5363 5361 5359 5357 5355 5353 5351 5350 5348 5346 5343 5341 5339 5338 5336 5334 5333 5331 5329 5328 5326 5324 5323 5321 5320 5319 5318 5316 5315 5314 5314
5453 5451 5450 5448 5447 5445 5444 5443 5441 5440 5438 5437 5436 5434 5433 5431 5429 5428 5427 5425 5423 5422 5420 5418 5416 5414 5412 5409 5407 5405 5402 5400 5398 5397 5395 5393 5392 5391 5389 5388 5386 5384 5383 5382 5380 5378 5376 5374 5372 5370 5368 5367 5365 5363 5362 5360 5358 5356 5354 5352 5350 5348 5346 5345 5343 5341 5339 5337 5335 5333 5332 5330 5328 5327 5325 5324 5322 5321 5319 5318 5317 5316 5315 5314 5313 5312
5451 5450 5448 5447 5445 5444 5442 5441 5439 5438 5436 5435 5433 5432 5430 5429 5428 5426 5425 5423 5422 5420 5418 5416 5414 5412 5410 5408 5405 5403 5401 5398 5396 5394 5393 5391 5389 5388 5387 5385 5383 5382 5380 5379 5377 5375 5373 5372 5370 5368 5366 5364 5363 5360 5358 5357 5355 5354 5352 5350 5348 5346 5344 5342 5340 5339 5337 5335 5333 5331 5329 5328 5326 5325 5323 5322 5320 5319 5318 5316 5315 5314 5313 5312 5311 5311
5450 5448 5447 5445 5443 5442 5441 5439 5437 5436 5434 5433 5431 5430 5428 5427 5425 5424 5423 5421 5420 5418 5416 5414 5412 5410 5408 5406 5404 5402 5399 5397 5395 5393 5391 5389 5387 5386 5384 5383 5381 5379 5378 5376 5374 5373 5371 5369 5367 5366 5364 5362 5360 5358 5356 5354 5353 5351 5350 5348 5346 5344 5342 5340 5338 5336 5335 5333 5331 5329 5327 5326 5324 5323 5321 5320 5318 5317 5315 5314 5313 5312 5311 5311 5310 5309
5448 5447 5445 5443 5442 5440 5438 5437 5435 5433 5432 5431 5429 5428 5426 5425 5423 5422 5421 5419 5418 5416 5414 5412 5410 5408 5406 5404 5402 5400 5398 5396 5393 5391 5389 5387 5385 5383 5382 5380 5379 5377 5375 5374 5372 5370 5368 5366 5364 5363 5361 5359 5358 5356 5354 5352 5350 5348 5347 5345 5343 5342 5340 5338 5336 5334 5332 5331 5329 5328 5326 5324 5323 5321 5320 5318 5317 5315 5314 5313 5311 5310 5309 5309 5308 5308
5447 5445 5443 5442 5440 5438 5437 5435 5433 5432 5430 5428 5427 5425 5424 5423 5421 5420 5418 5417 5415 5414 5412 5410 5408 5406 5404 5402 5400 5398 5396 5394 5392 5390 5388 5386 5384 5382 5380 5378 5377 5375 5373 5371 5369 5368 5366 5363 5361 5359 5358 5357 5355 5353 5352 5350 5348 5346 5344 5343 5341 5339 5338 5336 5334 5332 5330 5329 5328 5326 5324 5323 5322 5320 5318 5317 5315 5314 5312 5311 5310 5309 5308 5307 5307 5307
5445 5443 5441 5440 5438 5436 5435 5433 5431 5430 5428 5427 5425 5423 5422 5420 5419 5418 5416 5415 5413 5412 5410 5408 5406 5404 5402 5400 5398 5396 5394 5392 5390 5388 5386 5384 5382 5380 5378 5377 5375 5373 5372 5370 5368 5366 5364 5362 5359 5357 5354 5353 5352 5351 5349 5348 5347 5345 5343 5341 5339 5338 5336 5334 5333 5331 5329 5328 5326 5324 5323 5321 5320 5319 5318 5316 5314 5313 5311 5310 5308 5308 5307 5306 5306 5305
5443 5441 5439 5438 5436 5434 5433 5431 5429 5428 5426 5425 5423 5422 5420 5418 5417 5416 5414 5413 5411 5410 5408 5406 5404 5403 5401 5398 5396 5394 5392 5390 5388 5386 5384 5382 5380 5378 5377 5375 5373 5372 5370 5368 5367 5365 5363 5361 5358 5355 5352 5350 5348 5347 5347 5346 5345 5343 5342 5340 5338 5336 5334 5333 5331 5329 5328 5326 5324 5323 5321 5320 5318 5317 5317 5315 5313 5312 5310 5308 5308 5307 5306 5305 5304 5304
5442 5440 5438 5436 5434 5433 5431 5429 5428 5426 5424 5423 5421 5420 5418 5417 5415 5413 5412 5411 5409 5408 5406 5404 5403 5401 5399 5397 5395 5393 5390 5388 5386 5384 5382 5380 5378 5377 5375 5373 5372 5370 5368 5367 5365 5364 5362 5360 5358 5355 5352 5348 5345 5344 5343 5343 5342 5341 5340 5338 5336 5334 5333 5331 5329 5328 5326 5324 5323 5321 5320 5318 5317 5316 5315 5313 5312 5310 5309 5308 5306 5306 5305 5304 5303 5303